This is the latest recevied weather packets stored in our database for station/object HB9TVK-13. If no packets are shown the sender has not sent any weather packets the latest 10 day(s).
| Time | Temp. | Humidity | Pressure | Rain* | Wind** | Luminosity | Snow |
|---|---|---|---|---|---|---|---|
| 1788135737 | 62° F | 95% | 763.3 mmHg | 0.09 in | - | - | - |
| 1788135135 | 62° F | 94% | 763.6 mmHg | 0.06 in | - | - | - |
| 1788134535 | 63° F | 92% | 763.9 mmHg | 0.03 in | - | - | - |
| 1788133936 | 65° F | 86% | 763.7 mmHg | 0 in | - | - | - |
| 1788133336 | 66° F | 83% | 763 mmHg | 0 in | - | - | - |
| 1788132737 | 66° F | 84% | 762.5 mmHg | 0 in | - | - | - |
| 1788132137 | 66° F | 83% | 762.4 mmHg | 0 in | - | - | - |
| 1788131537 | 68° F | 80% | 762.1 mmHg | 0 in | - | - | - |
| 1788130936 | 68° F | 80% | 762.1 mmHg | 0 in | - | - | - |
| 1788130336 | 68° F | 78% | 762 mmHg | 0 in | - | - | - |
| 1788129735 | 67° F | 78% | 762 mmHg | 0 in | - | - | - |
| 1788129136 | 66° F | 80% | 762 mmHg | 0 in | - | - | - |
| 1788128537 | 66° F | 81% | 762.1 mmHg | 0 in | - | - | - |
| 1788127937 | 66° F | 82% | 762.1 mmHg | 0 in | - | - | - |
| 1788127337 | 66° F | 82% | 762.3 mmHg | 0 in | - | - | - |
| 1788126735 | 66° F | 81% | 762.2 mmHg | 0 in | - | - | - |
| 1788126136 | 66° F | 81% | 762.3 mmHg | 0 in | - | - | - |
| 1788125536 | 66° F | 79% | 762.4 mmHg | 0 in | - | - | - |
| 1788124936 | 66° F | 80% | 762.4 mmHg | 0 in | - | - | - |
| 1788124336 | 67° F | 80% | 762.4 mmHg | 0 in | - | - | - |
| 1788123737 | 67° F | 80% | 762.5 mmHg | 0 in | - | - | - |
| 1788123138 | 67° F | 79% | 762.5 mmHg | 0 in | - | - | - |
| 1788122535 | 67° F | 77% | 762.4 mmHg | 0 in | - | - | - |
| 1788121936 | 67° F | 78% | 762.4 mmHg | 0 in | - | - | - |
| 1788121336 | 68° F | 76% | 762.5 mmHg | 0 in | - | - | - |
* Rain latest hour (hover to see other rain measurements)
** Current wind speed in m/s (hover to see current wind gust speed)